FORMOSAT-5 (42920 NORAD) Tracking and Keplerian Element Data

This shows tracking and keplerian element data for the satellite.

Feedback or suggestion? Click here.




ElementValue
Catalog42920
NameFORMOSAT-5
Epoch Orbit8342
Epoch Day82.09561729
Epoch Year2019
RAAN161.2158
Inclination98.334
Eccentricity0.000913
Argument of Perigee278.9532
Mean Anonmoly81.0633
Mean Motion14.50827671
Decay Rate-4.6E-07
L11 42920U 17049A 19082.09561729 -.00000046 00000-0 -22003-6 0 9992
L22 42920 98.3340 161.2158 0009130 278.9532 81.0633 14.50827671 83428

Live tracking and technical data element details for FORMOSAT-5 (NORAD 42920). FORMOSAT-5 can be tracked NOW for your location showing map with azimuth and elevation plus other details from your city location.

Track the satellite on the map from your city or location and see movement details for azimuth, elevation, latitude, longitude, range, height, and movement on the map or in text.







IsCatalogInMostPopularTable: catalog: 42920, numindb: 228
Update: records affected: 1



GetName: 42920 FORMOSAT-5

Hit Count: updated at: Sun, 24 Mar 2019 08:48:01 GMT